User: anonymous   Login
Location: Unspecified
(0.0000°N, 0.0000°E)
Time: 08:58:00
(UTC+00:00)
Language:

TBA - TO BE ASSIGNED - Orbit

View from above orbital plane
View from above orbital plane
View from above satellite
View from above satellite

Ground track
Ground track

The orbit is defined by the following mean orbital elements,

1 68890U          26144.99356031 +.00000000 +00000-0 +69186-3 0 00000
2 68890  51.8834 354.3449 0001879 165.4705 194.6337 15.38694248    00
Epoch (UTC): 24 May 2026 23:50:43
Eccentricity: 0.0001879
inclination: 51.8834°
perigee height: 449 km
apogee height: 451 km
right ascension of ascending node: 354.3449°
argument of perigee: 165.4705°
revolutions per day: 15.38694248
mean anomaly at epoch: 194.6337°

The dashed part of the orbit path shows where the satellite is in the earth's shadow,  

DLR